{"data":{"norad_id":66621,"epoch":"2026-09-20T10:57:15.893280Z","epoch_age_seconds":90708,"freshness":"FRESH","line1":"1 66621U 25271E   26263.45643395  .00021122  00000+0  63440-3 0  9993","line2":"2 66621  53.1587 314.0310 0001412  78.8775 281.2387 15.34404792 47409","mean_motion":15.34404792,"eccentricity":0.0001412,"inclination_deg":53.1587,"raan_deg":314.031,"arg_perigee_deg":78.8775,"mean_anomaly_deg":281.2387,"bstar":0.0006344,"rev_number":4740,"period_min":93.847464991494,"perigee_km":461.72307277947,"apogee_km":463.65492204114,"semimajor_km":6840.8259974103,"source":"CELESTRAK","updated_at":"2026-09-21T09:00:35.982764Z"}}